User: anonymous   Login
Location: Unspecified
(0.0000°N, 0.0000°E)
Time: 15:54:24
(UTC+00:00)
Language:

SWISSCUBE - Orbit

View from above orbital plane
View from above orbital plane
View from above satellite
View from above satellite

Ground track
Ground track

The orbit data is extracted from the following two-line orbital elements,

1 35932U 09051B   16119.30667505  .00000328  00000-0  85559-4 0  9996
2 35932  98.4406 245.8156 0008983  88.8801 271.3425 14.55788448349955
Epoch (UTC): 28 April 2016 07:21:36
Eccentricity: 0.0008983
inclination: 98.4406°
perigee height: 700 km
apogee height: 713 km
right ascension of ascending node: 245.8156°
argument of perigee: 88.8801°
revolutions per day: 14.55788448
mean anomaly at epoch: 271.3425°
orbit number at epoch: 34995

The dashed part of the orbit path shows where the satellite is in the earth's shadow,  

DLR